Weather reports worldwide

Advertisment
Exeter Airport No. 2, United Kingdom (3844): temperature & dewpoint: 08.11.2018 16:00:00 - 14.11.2018 16:00:00 (GMT)Exeter Airport No. 2, United Kingdom (3844): wind speed & gusts: 08.11.2018 16:00:00 - 14.11.2018 16:00:00 (GMT)Exeter Airport No. 2, United Kingdom (3844): wind direction: 08.11.2018 16:00:00 - 14.11.2018 16:00:00 (GMT)Exeter Airport No. 2, United Kingdom (3844): reduced air pressure: 08.11.2018 16:00:00 - 14.11.2018 16:00:00 (GMT)Exeter Airport No. 2, United Kingdom (3844): visibility: 08.11.2018 16:00:00 - 14.11.2018 16:00:00 (GMT)Exeter Airport No. 2, United Kingdom (3844): sunshine duration: 08.11.2018 16:00:00 - 14.11.2018 16:00:00 (GMT)Exeter Airport No. 2, United Kingdom (3844): precipitation: 08.11.2018 16:00:00 - 14.11.2018 16:00:00 (GMT)
Date & Time tt [°C] td [°C] ff [km/h] ff [kn] fx [km/h] fx [kn] dd ppp [hPa] vv [km] sd [min] rr [mm]
14.11.2018 16:00:00 - - - - - - - - - - -
14.11.2018 15:00:00 - - - - - - - - - - -
14.11.2018 14:00:00 13,1 9,8 21 11 - - S 1019,5 30 12 0,0
14.11.2018 13:00:00 13,2 10,2 16 9 - - S 1019,7 35 6 0,0
14.11.2018 12:00:00 13,2 9,8 18 10 - - S 1020,2 35 0 0,0
14.11.2018 11:00:00 12,9 9,7 18 10 - - SSW 1020,8 30 0 0,0
14.11.2018 10:00:00 13,0 8,5 26 14 - - S 1020,8 35 0 0,0
14.11.2018 09:00:00 12,4 9,0 21 11 - - S 1020,9 30 0 0,0
14.11.2018 08:00:00 12,0 9,3 18 10 - - S 1020,7 24 0 0,0
14.11.2018 07:00:00 12,1 9,3 18 10 - - S 1020,5 23 0 0,0
14.11.2018 06:00:00 12,1 9,4 21 11 - - S 1020,6 22 0 0,0
14.11.2018 05:00:00 12,2 9,5 21 11 - - S 1020,6 24 0 0,0
14.11.2018 04:00:00 12,2 9,3 21 11 - - SSW 1020,4 26 0 0,0
14.11.2018 03:00:00 12,2 9,3 22 12 - - SSW 1020,8 26 0 0,0
14.11.2018 02:00:00 12,4 9,1 22 12 - - SSW 1021,5 28 0 0,0
14.11.2018 01:00:00 12,6 9,1 26 14 - - SSW 1022,1 26 0 0,0
14.11.2018 00:00:00 12,5 9,3 24 13 - - S 1022,6 26 - 0,0
13.11.2018 23:00:00 12,7 9,3 22 12 - - S 1022,8 26 0 0,0
13.11.2018 22:00:00 12,5 9,3 22 12 - - S 1022,8 24 0 0,0
13.11.2018 21:00:00 12,2 9,5 21 11 - - SSW 1023,0 24 0 0,0
13.11.2018 20:00:00 11,7 9,6 18 10 - - SSW 1023,1 20 0 0,0
13.11.2018 19:00:00 11,8 9,4 21 11 - - SSW 1023,2 22 0 0,0
13.11.2018 18:00:00 11,8 9,2 16 9 - - SSW 1023,1 23 0 0,0
13.11.2018 17:00:00 11,7 8,7 13 7 - - S 1023,1 24 0 0,0
13.11.2018 16:00:00 12,5 8,7 15 8 - - SSW 1022,9 28 18 0,0
13.11.2018 15:00:00 13,1 8,6 18 10 - - SW 1022,6 35 36 0,0
13.11.2018 14:00:00 13,6 8,5 13 7 - - SW 1022,6 40 24 0,0
13.11.2018 13:00:00 13,6 9,3 13 7 - - SW 1022,6 40 48 0,0
13.11.2018 12:00:00 13,5 8,7 18 10 - - WSW 1022,4 30 30 0,0
13.11.2018 11:00:00 12,6 8,5 18 10 - - SW 1022,2 30 54 0,0
13.11.2018 10:00:00 11,6 8,7 13 7 - - SW 1021,7 28 60 0,0
13.11.2018 09:00:00 9,7 7,7 13 7 - - SSW 1020,8 26 42 0,0
13.11.2018 08:00:00 5,4 4,6 9 5 - - S 1020,0 11 0 0,0
13.11.2018 07:00:00 6,2 5,8 11 6 - - S 1019,0 12 0 0,0
13.11.2018 06:00:00 7,0 6,3 11 6 - - SW 1017,9 20 0 0,0
13.11.2018 05:00:00 7,9 6,4 13 7 - - SSW 1016,6 20 0 0,0
13.11.2018 04:00:00 8,3 6,6 15 8 - - WSW 1015,6 21 0 0,0
13.11.2018 03:00:00 8,5 6,1 15 8 - - SW 1014,9 24 0 0,0
13.11.2018 02:00:00 8,8 6,7 15 8 - - WSW 1014,3 22 0 0,0
13.11.2018 01:00:00 8,7 6,7 15 8 - - WSW 1013,4 23 0 0,0
13.11.2018 00:00:00 9,4 6,8 16 9 - - SW 1012,8 23 - 0,0
12.11.2018 23:00:00 9,4 7,3 13 7 - - SSW 1012,0 22 0 0,0
12.11.2018 22:00:00 9,2 7,5 16 9 - - S 1011,2 15 0 0,0
12.11.2018 21:00:00 9,2 6,9 18 10 - - SSW 1011,0 23 0 0,0
12.11.2018 20:00:00 9,6 6,5 16 9 - - SSW 1010,6 30 0 2,0
12.11.2018 19:00:00 11,2 8,8 24 13 - - SSW 1010,2 6 0 0,2
12.11.2018 18:00:00 11,6 8,1 21 11 - - SSW 1009,9 24 0 0,0
12.11.2018 17:00:00 11,6 8,4 15 8 - - SSW 1009,4 23 0 0,0
12.11.2018 16:00:00 11,3 8,2 18 10 - - SW 1009,1 30 0 0,4
12.11.2018 15:00:00 11,2 8,1 22 12 - - WSW 1008,3 45 0 0,4
12.11.2018 14:00:00 12,1 7,9 26 14 46 25 SSW 1008,0 2,6 18 0,2
12.11.2018 13:00:00 13,8 8,7 24 13 - - SSW 1007,8 35 36 0,0
12.11.2018 12:00:00 12,6 9,0 24 13 - - SSW 1007,6 26 30 0,0
12.11.2018 11:00:00 11,5 9,0 21 11 - - SSW 1007,9 26 6 1,6
12.11.2018 10:00:00 13,1 8,9 24 13 - - SW 1007,5 30 30 0,4
12.11.2018 09:00:00 12,7 9,4 22 12 - - SSW 1007,2 24 24 0,0
12.11.2018 08:00:00 11,1 8,8 21 11 - - SSW 1006,5 19 0 0,0
12.11.2018 07:00:00 10,4 8,6 16 9 - - SSW 1005,9 17 0 0,0
12.11.2018 06:00:00 10,1 8,5 13 7 - - S 1005,3 17 0 0,0
12.11.2018 05:00:00 9,8 8,1 15 8 - - SSW 1004,9 19 0 0,0
12.11.2018 04:00:00 10,0 8,2 15 8 - - SSW 1004,8 20 0 0,0
12.11.2018 03:00:00 10,5 8,4 18 10 - - SSW 1004,4 22 0 0,0
12.11.2018 02:00:00 10,3 8,2 16 9 - - SSW 1004,1 22 0 0,0
12.11.2018 01:00:00 10,6 8,4 16 9 - - SSW 1004,0 21 0 0,0
12.11.2018 00:00:00 10,5 8,8 11 6 - - SSW 1003,9 20 - 0,0
11.11.2018 23:00:00 11,1 8,8 16 9 - - S 1003,8 18 0 0,0
11.11.2018 22:00:00 10,8 8,2 16 9 - - SSW 1003,5 21 0 0,0
11.11.2018 21:00:00 11,0 8,5 18 10 - - SSW 1003,2 20 0 0,0
11.11.2018 20:00:00 11,0 8,4 16 9 - - SSW 1002,8 20 0 0,0
11.11.2018 19:00:00 10,9 8,3 22 12 - - SSW 1002,5 20 0 0,0
11.11.2018 18:00:00 11,1 8,5 16 9 - - SSW 1002,0 22 0 0,4
11.11.2018 17:00:00 9,9 7,9 13 7 - - SW 1001,3 15 0 0,2
11.11.2018 16:00:00 12,0 7,7 16 9 - - SSW 1000,8 9 30 0,0
11.11.2018 15:00:00 12,7 7,6 26 14 - - SW 999,7 24 54 0,0
11.11.2018 14:00:00 13,2 6,9 29 16 - - SW 999,3 27 60 0,0
11.11.2018 13:00:00 13,0 8,1 22 12 - - SW 998,8 30 54 0,0
11.11.2018 12:00:00 13,2 8,3 22 12 - - SW 998,2 30 60 0,0
11.11.2018 11:00:00 11,6 8,1 21 11 - - SSW 997,8 19 24 0,0
11.11.2018 10:00:00 10,3 6,5 15 8 - - SSW 997,2 14 48 0,0
11.11.2018 09:00:00 9,7 6,8 21 11 - - SW 996,4 30 54 0,0
11.11.2018 08:00:00 8,2 5,8 15 8 - - SSW 995,3 25 0 0,0
11.11.2018 07:00:00 9,0 6,0 21 11 - - SW 993,6 35 0 0,0
11.11.2018 06:00:00 9,4 7,5 21 11 - - SW 992,4 30 0 0,2
11.11.2018 05:00:00 9,4 7,8 18 10 - - SSW 991,6 30 0 0,4
11.11.2018 04:00:00 9,2 8,4 11 6 - - SW 990,7 8 0 1,4
11.11.2018 03:00:00 9,9 8,5 13 7 - - SSW 991,5 18 0 4,8
11.11.2018 02:00:00 9,9 8,7 9 5 - - SE 991,7 22 0 0,0
11.11.2018 01:00:00 9,4 8,3 9 5 - - SSE 992,5 21 0 0,0
11.11.2018 00:00:00 7,9 7,0 8 4 - - ESE 992,9 21 - 0,0
10.11.2018 23:00:00 8,0 7,6 5 3 - - SSE 992,8 18 0 0,2
10.11.2018 22:00:00 8,0 7,5 9 5 - - SSE 992,9 14 0 0,0
10.11.2018 21:00:00 9,2 8,3 9 5 - - SSW 992,8 21 0 0,0
10.11.2018 20:00:00 9,7 8,7 5 3 - - SSW 992,7 23 0 0,2
10.11.2018 19:00:00 9,5 8,4 9 5 - - S 992,5 23 0 0,2
10.11.2018 18:00:00 8,8 7,2 8 4 - - SSE 992,4 28 0 0,0
10.11.2018 17:00:00 10,6 8,1 13 7 - - SSW 992,1 30 0 0,0
10.11.2018 16:00:00 10,5 9,2 13 7 - - S 991,7 8 0 0,6
10.11.2018 15:00:00 10,6 8,4 15 8 - - SSW 992,0 12 0 0,4
10.11.2018 14:00:00 12,1 9,2 21 11 - - SW 991,7 30 42 0,0
10.11.2018 13:00:00 11,6 8,2 21 11 - - SW 991,8 45 6 0,6
10.11.2018 12:00:00 12,7 9,0 28 15 - - SSW 992,0 30 12 0,2
10.11.2018 11:00:00 12,7 9,6 18 10 - - S 992,1 24 12 0,4
10.11.2018 10:00:00 10,6 8,6 16 9 54 29 SSW 992,7 5 0 1,2
10.11.2018 09:00:00 11,4 9,1 28 15 50 27 S 992,6 7 0 0,8
10.11.2018 08:00:00 10,7 9,4 13 7 - - S 992,4 13 0 1,2
10.11.2018 07:00:00 10,3 8,5 13 7 - - S 992,2 10 0 0,0
10.11.2018 06:00:00 9,9 8,0 13 7 - - SSW 992,2 13 0 0,0
10.11.2018 05:00:00 10,1 7,8 13 7 - - SSW 991,9 15 0 0,0
10.11.2018 04:00:00 10,3 7,9 21 11 - - SW 991,8 15 0 0,0
10.11.2018 03:00:00 9,9 7,9 16 9 - - SSW 991,7 16 0 0,0
10.11.2018 02:00:00 10,1 8,0 18 10 - - SW 991,4 16 0 0,0
10.11.2018 01:00:00 9,6 8,1 18 10 - - SW 990,6 16 0 0,0
10.11.2018 00:00:00 9,9 8,3 16 9 - - SSW 990,3 21 - 0,0
09.11.2018 23:00:00 9,9 8,9 11 6 - - S 989,9 25 0 2,6
09.11.2018 22:00:00 10,5 8,8 29 16 - - WSW 990,0 2,8 0 1,4
09.11.2018 21:00:00 12,4 11,7 13 7 - - SSW 989,3 12 0 0,2
09.11.2018 20:00:00 12,4 11,6 26 14 67 36 S 990,1 11 0 2,8
09.11.2018 19:00:00 12,0 11,5 41 22 72 39 S 990,0 1,6 0 3,0
09.11.2018 18:00:00 11,0 10,2 41 22 70 38 SSE 991,1 2,3 0 3,8
09.11.2018 17:00:00 11,0 9,9 39 21 67 36 SSE 992,6 2,5 0 3,2
09.11.2018 16:00:00 11,4 9,8 37 20 63 34 SSE 994,5 6 0 2,2
09.11.2018 15:00:00 12,0 8,3 41 22 65 35 S 996,6 4,7 0 0,2
09.11.2018 14:00:00 13,0 8,7 34 18 61 33 S 998,1 21 0 0,0
09.11.2018 13:00:00 12,7 8,5 34 18 48 26 S 999,9 24 0 0,0
09.11.2018 12:00:00 12,7 8,3 28 15 - - S 1001,3 29 0 0,0
09.11.2018 11:00:00 12,0 7,9 24 13 - - SSW 1002,2 30 0 0,0
09.11.2018 10:00:00 11,4 8,8 13 7 - - SW 1002,5 40 0 0,2
09.11.2018 09:00:00 12,5 10,9 18 10 - - S 1002,5 21 0 0,2
09.11.2018 08:00:00 12,0 10,3 13 7 - - S 1003,4 19 0 0,2
09.11.2018 07:00:00 12,5 10,5 18 10 - - SSE 1003,8 17 0 0,0
09.11.2018 06:00:00 12,7 10,5 21 11 - - SSE 1004,1 17 0 0,0
09.11.2018 05:00:00 12,3 10,3 21 11 - - SE 1004,7 17 0 0,0
09.11.2018 04:00:00 12,3 10,2 18 10 - - SSE 1005,1 15 0 0,0
09.11.2018 03:00:00 12,3 9,9 16 9 - - SSE 1005,6 17 0 0,0
09.11.2018 02:00:00 12,0 9,8 16 9 - - SSE 1006,2 16 0 0,2
09.11.2018 01:00:00 12,0 9,4 16 9 - - SSE 1006,6 11 0 0,0
09.11.2018 00:00:00 12,2 8,7 18 10 - - SSE 1007,1 20 - 0,0
08.11.2018 23:00:00 12,1 7,8 24 13 - - SSE 1007,5 22 0 0,0
08.11.2018 22:00:00 12,1 7,8 24 13 54 29 S 1007,9 20 0 0,0
08.11.2018 21:00:00 12,6 8,1 26 14 - - SSE 1008,1 20 0 0,0
08.11.2018 20:00:00 12,7 7,7 24 13 - - SSE 1008,4 21 0 0,0
08.11.2018 19:00:00 12,5 7,7 26 14 - - SSE 1008,5 22 0 0,0
08.11.2018 18:00:00 - - - - - - - - - - -
08.11.2018 17:00:00 12,0 8,3 24 13 - - SE 1008,7 19 0 0,0
08.11.2018 16:00:00 12,4 9,0 22 12 - - SSE 1009,0 18 0 0,0

tt = temperature
td = dewpoint
ff = wind speed
fx = gusts
dd = wind direction
ppp = reduced air pressure
vv = visibility
sd = sunshine duration
rr = precipitation

Next stations